CAS-2T
1 41847U 16066G 21063.69933324 .00000180 00000-0 37115-4 0 9994
2 41847 98.6166 122.3271 0365667 172.8617 187.7985 14.38153954226823
EO-88
1 42017U 17008BX 21063.44781592 .00003872 00000-0 14610-3 0 9997
2 42017 97.3275 132.9074 0007654 116.0382 244.1647 15.27605142225222
CAS-4B
1 42759U 17034B 21063.78814811 .00000526 00000-0 45101-4 0 9990
2 42759 43.0177 36.4440 0009924 236.8702 194.3519 15.10095326205320
CAS-4A
1 42761U 17034D 21063.78468964 .00000509 00000-0 43994-4 0 9996
2 42761 43.0181 35.5931 0010591 237.3905 192.8920 15.10176200205326
UCLSat
1 42765U 17036A 21063.18494852 .00002968 00000-0 12376-3 0 9991
2 42765 97.2650 116.0190 0010976 180.8303 179.2919 15.24404583206135
NIUSat
1 42766U 17036B 21063.35929086 .00002015 00000-0 89988-4 0 9990
2 42766 97.2655 112.9203 0015184 179.5993 180.5258 15.22385331205224
LituanicaSAT 2
1 42768U 17036D 21063.42127422 .00005436 00000-0 21661-3 0 9997
2 42768 97.2719 116.7445 0014492 170.9594 189.1908 15.25528725205451
Aalto 1
1 42775U 17036L 21063.13338466 .00001675 00000-0 75327-4 0 9995
2 42775 97.2628 112.9964 0013619 178.7840 181.3433 15.22392854205177
URSA MAIOR
1 42776U 17036M 21063.81033130 .00001684 00000-0 75163-4 0 9999
2 42776 97.2641 114.0587 0013518 175.8696 184.2655 15.22632783205291
Max Valier Sat
1 42778U 17036P 21063.80259746 .00001726 00000-0 75597-4 0 9991
2 42778 97.2703 115.7830 0012112 177.3080 182.8224 15.23268603205354
Pegasus
1 42784U 17036V 21063.79316283 .00002363 00000-0 10022-3 0 9995
2 42784 97.2656 116.1856 0011565 180.6697 179.4528 15.24018739205413
NUDATSat
1 42787U 17036Y 21063.59716723 .00003334 00000-0 13331-3 0 9994
2 42787 97.2700 118.0701 0010612 173.7674 186.3701 15.25733290205345
SUCHAI 1
1 42788U 17036Z 21063.38427770 .00003191 00000-0 13160-3 0 9994
2 42788 97.2666 116.6470 0011127 179.1149 181.0110 15.24722354205471
SKCUBE
1 42789U 17036AA 21063.39650747 .00002895 00000-0 12046-3 0 9990
2 42789 97.2660 116.4189 0011003 179.6075 180.5174 15.24496187205383
VZLUSAT 1
1 42790U 17036AB 21063.39299091 .00003994 00000-0 15926-3 0 9994
2 42790 97.2690 117.8622 0010574 175.3505 184.7833 15.25712676205460
VENTA 1
1 42791U 17036AC 21063.30909305 .00002871 00000-0 11960-3 0 9999
2 42791 97.2657 116.3589 0010682 180.1417 179.9819 15.24461481205369
Robusta 1B
1 42792U 17036AD 21063.77499950 .00002796 00000-0 11565-3 0 9998
2 42792 97.2663 117.1256 0010643 178.0277 182.1005 15.24721185205479
D-SAT
1 42794U 17036AF 21063.50116963 .00000379 00000-0 38102-4 0 9993
2 42794 97.4712 88.9219 0124891 216.0682 143.2065 14.91469481201411
TechnoSat
1 42829U 17042E 21063.64553166 .00000275 00000-0 32906-4 0 9995
2 42829 97.4855 298.6500 0015271 132.7884 227.4623 14.91228467198068
QIKCOM-1
1 42983U 98067NF 21063.60458681 .00010551 00000-0 11112-3 0 9997
2 42983 51.6372 71.3799 0003107 329.4325 30.6489 15.64899855190973
AO-91
1 43017U 17073E 21063.50091884 .00001218 00000-0 10007-3 0 9993
2 43017 97.7146 331.6201 0254177 282.8524 74.4405 14.79363217177602
EcAMSat
1 43019U 98067NG 21063.84768102 .00025995 00000-0 18420-3 0 9993
2 43019 51.6414 43.8338 0002543 339.8066 20.2832 15.73771335273683
PICSAT
1 43132U 18004X 21063.44532437 .00003287 00000-0 13297-3 0 9995
2 43132 97.4180 138.9221 0008442 209.1837 150.8930 15.25395501174675
AO-92
1 43137U 18004AC 21063.48410386 .00002501 00000-0 10346-3 0 9992
2 43137 97.4162 138.5689 0008006 211.5990 148.4768 15.24873825174667
TianYi 2
1 43155U 18008A 21063.85609471 .00001667 00000-0 10004-3 0 9995
2 43155 97.4155 131.9209 0016457 335.3312 136.1042 15.12171631172262
Zhou Enlai
1 43156U 18008B 21063.82830590 .00001172 00000-0 72346-4 0 9990
2 43156 97.4193 131.7309 0013502 336.3079 130.8189 15.11752326172205
TianYi 6
1 43158U 18008D 21063.67665060 .00001238 00000-0 77323-4 0 9996
2 43158 97.4142 130.3049 0013088 336.2419 189.1884 15.11217989172113
S-Net D
1 43186U 18014G 21063.68386827 .00000750 00000-0 70137-4 0 9990
2 43186 97.6838 333.1210 0012459 75.8561 284.4045 14.96980511168625
S-Net B
1 43187U 18014H 21063.48322411 .00000769 00000-0 71780-4 0 9993
2 43187 97.6835 332.8941 0012452 76.3891 283.8717 14.96979924168596
S-Net A
1 43188U 18014J 21063.48318920 .00000759 00000-0 70962-4 0 9994
2 43188 97.6839 332.9341 0012439 76.4377 283.8230 14.96978566168592
S-Net C
1 43189U 18014K 21063.68420286 .00000794 00000-0 74016-4 0 9999
2 43189 97.6835 333.0850 0012462 75.7954 284.4651 14.96979253167176
FMN 1
1 43192U 18015A 21063.87571678 .00004624 00000-0 17588-3 0 9993
2 43192 97.4709 198.8991 0013576 248.7876 230.2071 15.27198250171628
Shaonian Xing
1 43199U 18015H 21063.87270981 .00003175 00000-0 12259-3 0 9993
2 43199 97.4497 196.4212 0014626 259.8321 224.2176 15.26930130171689
SurfSat
1 43614U 18070B 21063.25985794 .00006285 00000-0 15143-3 0 9993
2 43614 93.0230 262.2845 0016680 57.8782 302.4089 15.41124567138468
CP-7 DAVE
1 43615U 18070C 21063.25865088 .00005968 00000-0 14500-3 0 9990
2 43615 93.0232 262.2530 0016872 57.6750 302.6136 15.40872222138459
ELFIN-B
1 43616U 18070D 21063.78378586 .00007556 00000-0 16985-3 0 9995
2 43616 93.0192 262.5511 0016701 55.0099 305.2722 15.43197183138624
ELFIN-A
1 43617U 18070E 21063.51263309 .00009606 00000-0 21336-3 0 9997
2 43617 93.0246 263.1852 0016003 53.3251 306.9474 15.43553134138596
STARS-Me Mother
1 43640U 98067PQ 21063.28324788 .00078506 00000-0 40921-3 0 9996
2 43640 51.6309 59.8446 0002350 353.5041 6.5929 15.80207814137570
CubeBel 1
1 43666U 18083E 21063.84992970 .00001908 00000-0 94303-4 0 9996
2 43666 97.4669 93.4960 0015187 167.1870 298.5803 15.18978823130136
Changshagaoxin
1 43669U 18083H 21063.82392319 .00001161 00000-0 60608-4 0 9990
2 43669 97.4562 90.8640 0011315 159.5391 306.5189 15.17839048130017
Ten-Koh
1 43677U 18084G 21063.32128077 .00000207 00000-0 27069-4 0 9997
2 43677 97.9046 186.1936 0016519 26.3746 333.8309 14.90410686127646
PO-101
1 43678U 18084H 21063.81301781 -.00000258 00000-0 -19841-4 0 9994
2 43678 97.9076 188.6582 0011037 43.4701 316.7395 14.91710774127833
IRVINE 01
1 43693U 18088D 21063.51005407 .00005965 00000-0 23898-3 0 9992
2 43693 85.0309 264.6573 0018742 56.8900 303.4139 15.24643942128447
QO-100
1 43700U 18090A 21063.26598605 .00000134 00000-0 00000-0 0 9993
2 43700 0.0181 140.8379 0002435 243.1890 259.7321 1.00272017 8310
Reaktor Hello World
1 43743U 18096AA 21063.25131423 .00002984 00000-0 11056-3 0 9997
2 43743 97.3939 141.5628 0015755 291.0002 68.9552 15.28323851126065
MinXSS-2
1 43758U 18099A 21063.42426685 .00000917 00000-0 86812-4 0 9999
2 43758 97.6778 136.7534 0016565 45.1203 315.1360 14.95933233122815
AO-95
1 43770U 18099N 21063.45411000 .00000398 00000-0 41307-4 0 9994
2 43770 97.6759 135.9145 0015542 52.7781 307.4856 14.95213982122766
RANGE-B
1 43772U 18099Q 21063.43567574 .00000505 00000-0 50688-4 0 9994
2 43772 97.6842 136.7350 0015010 41.0944 319.1404 14.95485842122765
RANGE-A
1 43773U 18099R 21063.45290277 .00000239 00000-0 26879-4 0 9999
2 43773 97.6697 135.3374 0014346 41.1209 319.1090 14.95134262122758
